{"data":{"norad_id":58937,"epoch":"2026-09-20T22:01:40.848960Z","epoch_age_seconds":119590,"freshness":"FRESH","line1":"1 58937U 24027G   26263.91783390  .00001761  00000+0  63263-4 0  9994","line2":"2 58937  53.1581 121.7444 0001198  78.4365 281.6772 15.34393634147233","mean_motion":15.34393634,"eccentricity":0.0001198,"inclination_deg":53.1581,"raan_deg":121.7444,"arg_perigee_deg":78.4365,"mean_anomaly_deg":281.6772,"bstar":6.3263e-5,"rev_number":14723,"period_min":93.8481474435,"perigee_km":461.90262643856,"apogee_km":463.54169629363,"semimajor_km":6840.8591613661,"source":"CELESTRAK","updated_at":"2026-09-21T09:00:33.997046Z"}}